WZZ26E LEIB-EPWR

Flight info

Callsign WZZ26E
Flight time N/A
Altitude 36000
Route MHN N851 ISTER DCT TORTU DCT LOGDI DCT OSBUL DCT GIKEB DCT DETSA/N0440F370 DCT PINQI DCT BEKVI DCT LAGAR/N0392F270 T871 DINOV
Aircraft A320/M-SDE3FGHIRWY/LB1

Departure

Time 2026-05-01 13:59
Airport Ibiza Airport (LEIB)

Arrival

Time N/A
Airport Copernicus Wrocław Airport (EPWR)
Time Latitude Longitude Altitude Speed Heading
2026-05-01 13:35 38.87472 1.36686 43 ft 0 kts 12°
2026-05-01 13:51 38.87468 1.36684 46 ft 3 kts 23°
2026-05-01 13:51 38.87443 1.36674 44 ft 4 kts
2026-05-01 13:51 38.87416 1.36678 41 ft 4 kts 348°
2026-05-01 13:52 38.87393 1.36681 38 ft 4 kts 43°
2026-05-01 13:52 38.87387 1.36673 39 ft 1 kts 61°
2026-05-01 13:55 38.87390 1.36678 42 ft 3 kts 61°
2026-05-01 13:55 38.87401 1.36703 40 ft 4 kts 60°
2026-05-01 13:55 38.87417 1.36747 43 ft 8 kts 71°
2026-05-01 13:55 38.87380 1.36801 41 ft 11 kts 150°
2026-05-01 13:56 38.87303 1.36849 38 ft 13 kts 170°
2026-05-01 13:56 38.87244 1.36760 36 ft 15 kts 242°
2026-05-01 13:56 38.87193 1.36634 33 ft 17 kts 244°
2026-05-01 13:56 38.87136 1.36493 34 ft 17 kts 242°
2026-05-01 13:57 38.87076 1.36350 31 ft 19 kts 243°
2026-05-01 13:57 38.87031 1.36246 30 ft 21 kts 242°
2026-05-01 13:57 38.86955 1.36062 29 ft 16 kts 242°
2026-05-01 13:57 38.86900 1.35927 27 ft 18 kts 242°
2026-05-01 13:58 38.86848 1.35822 26 ft 13 kts 212°
2026-05-01 13:58 38.86762 1.35858 25 ft 13 kts 152°
2026-05-01 13:58 38.86716 1.35924 26 ft 11 kts 97°
2026-05-01 13:58 38.86750 1.36023 27 ft 18 kts 62°
2026-05-01 13:59 38.86906 1.36398 27 ft 81 kts 63°
2026-05-01 13:59 38.87256 1.37252 31 ft 133 kts 62°
2026-05-01 13:59 38.87729 1.38411 341 ft 149 kts 64°
2026-05-01 13:59 38.88184 1.39603 912 ft 149 kts 69°
2026-05-01 14:00 38.88462 1.40898 1423 ft 154 kts 76°
2026-05-01 14:00 38.88716 1.42329 1650 ft 175 kts 76°
2026-05-01 14:00 38.89007 1.43955 1851 ft 199 kts 76°
2026-05-01 14:00 38.89331 1.45757 2305 ft 212 kts 76°
2026-05-01 14:01 38.89666 1.47613 3002 ft 215 kts 76°
2026-05-01 14:01 38.90005 1.49496 3698 ft 217 kts 76°
2026-05-01 14:01 38.90347 1.51401 4377 ft 221 kts 75°
2026-05-01 14:01 38.90694 1.53335 5043 ft 225 kts 77°
2026-05-01 14:02 38.90772 1.55365 5587 ft 238 kts 95°
2026-05-01 14:02 38.90569 1.57547 5881 ft 261 kts 96°
2026-05-01 14:02 38.90338 1.59942 6395 ft 275 kts 97°
2026-05-01 14:02 38.90098 1.62404 7090 ft 281 kts 97°
2026-05-01 14:03 38.89849 1.64912 7804 ft 286 kts 99°
2026-05-01 14:03 38.89285 1.67371 8509 ft 289 kts 115°
2026-05-01 14:03 38.88421 1.69718 9252 ft 293 kts 115°
2026-05-01 14:03 38.87555 1.72100 10001 ft 296 kts 115°
2026-05-01 14:04 38.86978 1.73695 10414 ft 301 kts 115°
2026-05-01 14:04 38.86065 1.76222 10579 ft 324 kts 115°
2026-05-01 14:04 38.85085 1.78922 10827 ft 341 kts 115°
2026-05-01 14:04 38.84076 1.81697 11380 ft 346 kts 115°
2026-05-01 14:05 38.83051 1.84510 12017 ft 349 kts 115°
2026-05-01 14:05 38.82030 1.87350 12655 ft 352 kts 113°
2026-05-01 14:05 38.81351 1.90374 13272 ft 356 kts 99°
2026-05-01 14:05 38.81234 1.93556 13884 ft 360 kts 86°
2026-05-01 14:06 38.81694 1.96717 14428 ft 363 kts 72°
2026-05-01 14:06 38.82638 1.99730 14970 ft 366 kts 67°
2026-05-01 14:06 38.83653 2.02737 15508 ft 368 kts 67°
2026-05-01 14:06 38.84673 2.05767 16044 ft 371 kts 67°
2026-05-01 14:07 38.85699 2.08816 16576 ft 374 kts 67°
2026-05-01 14:07 38.86730 2.11892 17099 ft 377 kts 68°
2026-05-01 14:07 38.87764 2.14989 17630 ft 379 kts 68°
2026-05-01 14:08 38.89846 2.21222 18642 ft 385 kts 68°
2026-05-01 14:08 38.90921 2.24438 19110 ft 388 kts 68°
2026-05-01 14:08 38.91974 2.27593 19562 ft 391 kts 68°
2026-05-01 14:08 38.93048 2.30815 20026 ft 394 kts 68°
2026-05-01 14:09 38.94131 2.34067 20485 ft 397 kts 68°
2026-05-01 14:09 38.95218 2.37343 20918 ft 400 kts 68°
2026-05-01 14:09 38.96308 2.40639 21338 ft 403 kts 68°
2026-05-01 14:09 38.97411 2.43973 21765 ft 406 kts 68°
2026-05-01 14:10 38.98521 2.47323 22185 ft 409 kts 68°
2026-05-01 14:10 38.99637 2.50702 22593 ft 412 kts 68°
2026-05-01 14:10 39.00759 2.54107 22997 ft 415 kts 68°
2026-05-01 14:10 39.01884 2.57531 23402 ft 418 kts 68°
2026-05-01 14:11 39.03019 2.60988 23788 ft 421 kts 68°
2026-05-01 14:11 39.05309 2.67965 24471 ft 425 kts 67°
2026-05-01 14:11 39.06464 2.71482 24822 ft 427 kts 67°
2026-05-01 14:12 39.07625 2.75012 25165 ft 429 kts 67°
2026-05-01 14:12 39.08788 2.78562 25504 ft 431 kts 67°
2026-05-01 14:12 39.09953 2.82133 25843 ft 434 kts 67°
2026-05-01 14:12 39.11121 2.85721 26181 ft 436 kts 67°
2026-05-01 14:13 39.12294 2.89333 26506 ft 438 kts 67°
2026-05-01 14:13 39.13473 2.92956 26834 ft 440 kts 66°
2026-05-01 14:13 39.14895 2.96455 27151 ft 442 kts 57°
2026-05-01 14:13 39.16693 2.99663 27457 ft 443 kts 52°
2026-05-01 14:14 39.18562 3.02844 27787 ft 446 kts 52°
2026-05-01 14:14 39.20406 3.06002 28097 ft 448 kts 52°
2026-05-01 14:14 39.22276 3.09225 28419 ft 450 kts 52°
2026-05-01 14:14 39.24152 3.12473 28741 ft 452 kts 53°
2026-05-01 14:15 39.26035 3.15739 29057 ft 454 kts 52°
2026-05-01 14:15 39.27929 3.19020 29381 ft 456 kts 52°
2026-05-01 14:15 39.29823 3.22300 29843 ft 455 kts 52°
2026-05-01 14:15 39.31719 3.25576 30290 ft 454 kts 52°
2026-05-01 14:16 39.33605 3.28839 30668 ft 454 kts 52°
2026-05-01 14:16 39.35489 3.32107 31028 ft 453 kts 52°
2026-05-01 14:16 39.37376 3.35380 31385 ft 453 kts 52°
2026-05-01 14:16 39.39260 3.38647 31735 ft 453 kts 52°
2026-05-01 14:17 39.41144 3.41920 32097 ft 453 kts 53°
2026-05-01 14:17 39.43022 3.45189 32470 ft 453 kts 53°
2026-05-01 14:17 39.44898 3.48460 32841 ft 453 kts 53°
2026-05-01 14:17 39.46773 3.51734 33217 ft 452 kts 53°
2026-05-01 14:18 39.48644 3.55003 33586 ft 452 kts 53°
2026-05-01 14:18 39.50513 3.58271 33955 ft 451 kts 53°
2026-05-01 14:18 39.52380 3.61540 34292 ft 451 kts 53°
2026-05-01 14:18 39.53614 3.63703 34492 ft 450 kts 53°
2026-05-01 14:19 39.56075 3.68023 34882 ft 450 kts 53°
2026-05-01 14:19 39.57932 3.71284 35174 ft 449 kts 53°
2026-05-01 14:19 39.59784 3.74535 35473 ft 448 kts 53°
2026-05-01 14:19 39.61638 3.77792 35748 ft 448 kts 53°
2026-05-01 14:20 39.63485 3.81043 36007 ft 447 kts 53°
2026-05-01 14:20 39.67184 3.87575 36210 ft 453 kts 53°
2026-05-01 14:21 39.70927 3.94200 36214 ft 456 kts 53°
2026-05-01 14:21 39.74687 4.00851 36217 ft 456 kts 53°
2026-05-01 14:22 39.80317 4.10841 36219 ft 456 kts 53°
2026-05-01 14:22 39.84058 4.17511 36222 ft 456 kts 53°
2026-05-01 14:23 39.87576 4.24327 36225 ft 457 kts 59°
2026-05-01 14:23 39.90798 4.31543 36221 ft 467 kts 59°
2026-05-01 14:24 39.94111 4.38926 36221 ft 475 kts 59°
2026-05-01 14:24 39.97444 4.46371 36222 ft 476 kts 59°
2026-05-01 14:25 40.00773 4.53828 36223 ft 476 kts 59°
2026-05-01 14:25 40.04089 4.61306 36220 ft 475 kts 59°
2026-05-01 14:26 40.10291 4.71258 36226 ft 473 kts 41°
2026-05-01 14:27 40.15141 4.77053 36232 ft 473 kts 41°
2026-05-01 14:27 40.19955 4.82855 36237 ft 473 kts 41°
2026-05-01 14:28 40.27203 4.91630 36244 ft 473 kts 41°
2026-05-01 14:28 40.32039 4.97482 36242 ft 473 kts 41°
2026-05-01 14:29 40.36863 5.03327 36249 ft 473 kts 41°
2026-05-01 14:30 40.46514 5.15078 36252 ft 473 kts 41°
2026-05-01 14:31 40.53741 5.23895 36249 ft 473 kts 41°
2026-05-01 14:31 40.58551 5.29784 36250 ft 472 kts 41°
2026-05-01 14:32 40.63362 5.35688 36251 ft 472 kts 41°
2026-05-01 14:32 40.68169 5.41589 36250 ft 472 kts 41°
2026-05-01 14:33 40.72942 5.47467 36258 ft 472 kts 41°
2026-05-01 14:33 40.77739 5.53390 36252 ft 473 kts 41°
2026-05-01 14:34 40.82545 5.59323 36253 ft 473 kts 41°
2026-05-01 14:34 40.87342 5.65277 36256 ft 473 kts 41°
2026-05-01 14:35 40.92134 5.71222 36263 ft 473 kts 41°
2026-05-01 14:35 40.96928 5.77182 36266 ft 472 kts 41°
2026-05-01 14:36 41.01709 5.83138 36272 ft 472 kts 41°
2026-05-01 14:36 41.06488 5.89112 36279 ft 472 kts 41°
2026-05-01 14:37 41.11255 5.95093 36285 ft 471 kts 41°
2026-05-01 14:37 41.16014 6.01064 36283 ft 470 kts 41°
2026-05-01 14:38 41.20762 6.07027 36288 ft 469 kts 41°
2026-05-01 14:38 41.25496 6.13002 36292 ft 469 kts 41°
2026-05-01 14:39 41.30215 6.18971 36295 ft 468 kts 41°
2026-05-01 14:39 41.34933 6.24938 36296 ft 467 kts 41°
2026-05-01 14:40 41.39606 6.30857 36298 ft 466 kts 41°
2026-05-01 14:40 41.44327 6.36849 36295 ft 465 kts 41°
2026-05-01 14:41 41.48974 6.42766 36295 ft 464 kts 41°
2026-05-01 14:41 41.53639 6.48723 36300 ft 464 kts 41°
2026-05-01 14:42 41.58302 6.54690 36297 ft 464 kts 41°
2026-05-01 14:42 41.62959 6.60658 36295 ft 463 kts 41°
2026-05-01 14:43 41.67606 6.66625 36297 ft 463 kts 41°
2026-05-01 14:43 41.72251 6.72595 36290 ft 463 kts 41°
2026-05-01 14:44 41.76889 6.78581 36301 ft 462 kts 41°
2026-05-01 14:44 41.83787 6.87521 36297 ft 462 kts 41°
2026-05-01 14:45 41.90706 6.96499 36296 ft 461 kts 41°
2026-05-01 14:46 41.95315 7.02480 36287 ft 460 kts 41°
2026-05-01 14:46 42.02203 7.11454 36307 ft 459 kts 41°
2026-05-01 14:47 42.06779 7.17440 36295 ft 459 kts 41°
2026-05-01 14:48 42.13633 7.26416 36295 ft 457 kts 41°
2026-05-01 14:48 42.20458 7.35398 36292 ft 457 kts 41°
2026-05-01 14:49 42.29503 7.47342 36294 ft 456 kts 41°
2026-05-01 14:50 42.38550 7.59340 36296 ft 455 kts 40°
2026-05-01 14:51 42.45315 7.68331 36292 ft 454 kts 40°
2026-05-01 14:52 42.52061 7.77330 36296 ft 453 kts 41°
2026-05-01 14:53 42.58750 7.86307 36297 ft 452 kts 41°
2026-05-01 14:53 42.63219 7.92316 36305 ft 452 kts 41°
2026-05-01 14:54 42.66923 7.97296 36301 ft 451 kts 41°
2026-05-01 14:54 42.71380 8.03300 36303 ft 451 kts 41°
2026-05-01 14:55 42.75837 8.09320 36302 ft 450 kts 41°
2026-05-01 14:55 42.80281 8.15329 36301 ft 450 kts 41°
2026-05-01 14:56 42.84688 8.21300 36301 ft 450 kts 41°
2026-05-01 14:56 42.89118 8.27315 36307 ft 449 kts 41°
2026-05-01 14:57 42.93539 8.33345 36304 ft 449 kts 41°
2026-05-01 14:57 43.00155 8.42397 36319 ft 449 kts 41°
2026-05-01 14:58 43.04569 8.48437 36318 ft 448 kts 41°
2026-05-01 14:58 43.08946 8.54440 36318 ft 448 kts 41°
2026-05-01 14:59 43.13341 8.60484 36325 ft 448 kts 41°
2026-05-01 14:59 43.17729 8.66531 36326 ft 447 kts 41°
2026-05-01 15:00 43.24300 8.75620 36328 ft 447 kts 41°
2026-05-01 15:01 43.28661 8.81665 36328 ft 446 kts 41°
2026-05-01 15:01 43.33016 8.87719 36330 ft 445 kts 42°
2026-05-01 15:02 43.37356 8.93773 36327 ft 444 kts 41°
2026-05-01 15:02 43.42164 8.98865 36325 ft 438 kts 30°
2026-05-01 15:03 43.47248 9.03477 36331 ft 438 kts 30°
2026-05-01 15:03 43.52320 9.08109 36324 ft 437 kts 31°
2026-05-01 15:04 43.57382 9.12754 36325 ft 437 kts 31°
2026-05-01 15:04 43.62446 9.17392 36327 ft 437 kts 31°
2026-05-01 15:05 43.67502 9.22037 36322 ft 436 kts 31°
2026-05-01 15:05 43.72550 9.26686 36323 ft 436 kts 31°
2026-05-01 15:06 43.77591 9.31341 36323 ft 436 kts 31°
2026-05-01 15:06 43.82627 9.36000 36322 ft 435 kts 31°
2026-05-01 15:07 43.87626 9.40633 36327 ft 435 kts 31°
2026-05-01 15:07 43.92653 9.45299 36325 ft 435 kts 31°
2026-05-01 15:08 43.97676 9.49968 36321 ft 435 kts 31°
2026-05-01 15:08 44.02696 9.54646 36318 ft 434 kts 31°
2026-05-01 15:09 44.07710 9.59334 36316 ft 434 kts 31°
2026-05-01 15:09 44.12719 9.64024 36316 ft 434 kts 31°
2026-05-01 15:10 44.17693 9.68689 36318 ft 434 kts 31°
2026-05-01 15:10 44.25188 9.75755 36312 ft 433 kts 32°
2026-05-01 15:11 44.32683 9.82809 36321 ft 433 kts 31°
2026-05-01 15:12 44.37673 9.87521 36330 ft 433 kts 32°
2026-05-01 15:12 44.45146 9.94612 36350 ft 432 kts 32°
2026-05-01 15:14 44.57568 10.06453 36370 ft 431 kts 32°
2026-05-01 15:14 44.64974 10.13531 36370 ft 431 kts 32°
2026-05-01 15:15 44.74924 10.22965 36363 ft 431 kts 30°
2026-05-01 15:16 44.85076 10.31963 36366 ft 432 kts 31°
2026-05-01 15:18 44.97530 10.43873 36370 ft 433 kts 32°
2026-05-01 15:19 45.07495 10.53410 36363 ft 432 kts 32°
2026-05-01 15:19 45.14966 10.60556 36365 ft 432 kts 32°
2026-05-01 15:20 45.22388 10.67707 36350 ft 432 kts 32°
2026-05-01 15:21 45.27356 10.72497 36345 ft 432 kts 32°
2026-05-01 15:21 45.32320 10.77298 36336 ft 432 kts 32°
2026-05-01 15:22 45.39762 10.84517 36343 ft 431 kts 32°
2026-05-01 15:22 45.44686 10.89309 36336 ft 432 kts 33°
2026-05-01 15:23 45.49647 10.94143 36339 ft 432 kts 33°
2026-05-01 15:23 45.54602 10.98980 36348 ft 432 kts 33°
2026-05-01 15:24 45.59561 11.03828 36346 ft 432 kts 33°
2026-05-01 15:24 45.64520 11.08682 36348 ft 432 kts 33°
2026-05-01 15:25 45.69476 11.13555 36358 ft 432 kts 33°
2026-05-01 15:25 45.74423 11.18439 36358 ft 432 kts 33°
2026-05-01 15:26 45.79378 11.23348 36359 ft 433 kts 33°
2026-05-01 15:26 45.84300 11.28202 36357 ft 432 kts 33°
2026-05-01 15:27 45.89252 11.33094 36362 ft 432 kts 33°
2026-05-01 15:28 45.96699 11.40500 36350 ft 432 kts 33°
2026-05-01 15:28 46.01600 11.45393 36352 ft 432 kts 34°
2026-05-01 15:29 46.09023 11.52822 36337 ft 431 kts 34°
2026-05-01 15:30 46.18830 11.62669 36311 ft 431 kts 34°
2026-05-01 15:31 46.33351 11.78004 36283 ft 430 kts 35°
2026-05-01 15:32 46.43023 11.88220 36275 ft 430 kts 35°
2026-05-01 15:34 46.57462 12.03613 36292 ft 429 kts 36°